Location: Halfweg
(53.1000°N, 6.6000°E)
Time: 07:29:03
(UTC+00:00)

Cosmos 2034 Rocket - Pass Details

Date: 15 May 2026
Orbit: 956 x 1001 km, 82.9° (Epoch: 6 June)

Event Time Altitude Azimuth Distance (km) Brightness Sun altitude
Exits shadow 21:58:34 14° 194° (SSW) 2,478 5.7 -15.2°
Maximum altitude 22:04:10 79° 281° (W) 1,018 4.1 -15.5°
Drops below altitude 10° 22:10:32 10° 9° (N) 2,761 7.3 -15.8°
Sets 22:13:03 0° 11° (N) 3,707 8.1 -16.0°
